Cloud_Cover
0 0 0 0 16 89 98 100 89 100 64 100 14 100 100 100 100 100 97 0 0 0 0 78 21 39 92 100 100 100 100 85 100 100 100 100 100 100 100 100 69 5 7 5
0 0 0 1 47 100 68 93 95 100 99 100 35 88 100 100 100 100 83 71 0 0 20 58 45 58 97 100 100 98 68 100 100 100 100 100 100 96 100 100 100 100 98 80
0 0 0 0 5 100 100 5 38 76 92 96 51 92 76 100 100 100 96 66 4 0 0 2 4 4 47 100 100 100 61 100 100 100 100 100 100 100 97 84 100 100 100 100
0 0 0 0 2 66 83 89 18 100 76 24 31 100 2 67 100 100 100 74 1 27 0 0 1 21 3 87 100 100 100 100 100 100 100 100 100 100 88 100 100 100 100 100
0 0 0 0 0 27 1 38 43 86 68 18 34 44 8 5 76 88 98 100 100 36 0 0 0 0 0 63 15 11 100 100 100 100 100 100 100 100 100 98 100 100 97 100
0 0 0 0 1 5 100 91 0 73 100 57 20 0 64 94 100 92 100 100 95 100 69 0 0 0 0 0 23 100 100 100 100 100 98 71 6 6 91 100 99 99 80 100
0 0 0 0 0 1 59 28 1 1 0 14 10 100 88 100 100 100 100 100 100 100 100 0 0 0 0 0 0 0 2 24 87 42 0 3 1 1 5 98 80 37 60 100
0 0 0 0 0 0 0 10 4 0 0 71 100 42 94 100 100 100 100 100 100 100 100 0 0 0 0 0 0 0 0 6 2 90 13 4 5 0 0 5 4 4 16 9
0 0 0 0 0 0 0 0 0 0 2 79 96 51 5 18 84 77 100 100 100 44 0 3 6 0 0 0 0 0 0 0 1 6 17 0 12 4 29 97 62 5 5 14
0 0 0 0 0 0 0 0 0 0 3 2 0 7 5 20 100 99 100 100 100 72 44 8 77 4 0 0 0 0 0 95 71 61 73 26 0 9 89 84 23 5 40 41
0 0 0 0 0 0 0 0 0 0 0 0 0 25 88 87 100 100 100 100 100 34 100 99 100 58 0 0 0 1 36 100 100 100 100 100 66 5 34 33 8 4 4 5
0 0 0 0 0 0 0 0 0 0 0 0 0 0 5 89 100 100 100 100 61 77 40 100 67 0 0 0 0 0 100 100 100 100 19 0 0 0 0 0 0 0 0 0
0 0 0 0 0 0 0 0 0 0 0 0 0 0 0 4 81 94 6 88 5 12 98 100 40 0 0 0 0 0 81 68 76 0 0 0 0 0 0 0 0 0 0 0
0 0 0 0 0 0 0 0 0 0 0 0 0 0 0 0 6 30 99 42 45 5 78 45 0 0 0 0 0 0 17 25 1 0 0 0 0 0 0 0 0 0 0 0
0 0 0 0 0 0 0 0 0 0 0 0 0 0 0 3 90 94 84 86 92 90 66 2 8 12 0 0 0 0 0 0 0 0 0 0 0 0 0 0 0 0 0 0
0 0 0 0 0 0 0 0 0 0 0 0 0 0 0 0 3 0 26 100 100 100 100 63 100 100 26 4 0 39 9 0 0 0 0 0 0 0 0 0 0 0 0 0
2 0 0 0 0 0 0 0 0 0 0 0 0 0 0 71 0 1 100 100 99 98 7 54 86 100 100 60 6 20 0 0 0 0 0 0 0 0 0 0 0 0 0 0
5 0 0 0 0 0 0 0 0 0 0 0 0 0 0 14 2 0 0 0 0 5 100 100 88 100 94 100 31 0 0 0 0 0 0 0 0 0 0 0 0 0 0 0
0 8 5 0 5 0 0 0 0 0 0 0 0 0 0 0 0 0 0 0 0 2 72 66 100 100 42 55 11 2 4 0 0 0 0 13 23 0 0 0 0 0 0 0
94 100 96 66 9 1 0 0 4 0 0 0 0 0 0 0 0 0 0 0 0 0 0 0 4 100 0 5 2 5 6 0 0 0 0 76 12 0 0 0 5 0 0 0
100 100 100 85 3 0 5 0 19 57 46 0 0 0 0 0 0 0 0 1 91 100 100 100 94 100 95 4 5 33 4 0 0 0 5 100 39 0 9 82 69 0 0 0
58 7 1 0 0 0 0 0 92 62 16 0 0 0 0 0 0 0 43 100 100 100 100 100 100 100 52 61 66 98 98 6 0 2 8 2 0 14 98 27 0 0 1 5
5 1 2 4 28 99 21 0 5 0 6 95 0 0 0 0 0 0 100 100 100 100 100 100 100 100 100 98 68 100 100 4 0 1 88 76 9 8 8 0 0 2 5 5
49 84 94 92 100 100 98 24 0 0 77 100 66 6 1 0 0 3 97 100 100 100 100 100 100 100 100 100 100 100 100 100 6 5 54 97 10 0 0 0 5 48 12 3
82 100 100 100 100 12 61 100 50 37 49 100 81 6 42 21 11 94 24 97 100 100 100 100 100 100 100 100 100 100 99 10 7 18 12 7 5 0 0 5 3 0 5 5
76 100 100 100 100 98 100 67 95 96 99 100 100 70 100 22 91 98 88 100 100 100 100 100 100 100 100 100 100 100 98 15 2 4 17 0 0 0 0 0 3 5 5 8